Starlink 6341

operational
NORAD ID: 56786 Int'l Des: 2023-078 Owner: SPXS Country: US Constellation: starlink
LEOCIRCULAR

关于 Starlink 6341

正在加载描述...

实时位置

正在加载3D地球...

即将过境

高度历史

Altitude vs Time

uPlot chart will show altitude changes over time

两行轨道根数

1 56786U 23078V 25352.92015625 .00000864 00000-0 80236-4 0 9990
2 56786 69.9988 168.1579 0003024 272.3484 87.7328 14.98329176141077
Epoch: Dec 18, 2025 • Age: 20 hours

当前状态

高度 585.6 km
速度 7.57 km/s
星下点 70.03°N, 103.04°W
发射日期 May 31, 2023
运行时间 2.5 years
类型 internet

技术详情

分类 Payload
质量 305.00 kg
干质量 290.00 kg
总质量 305.00 kg
长度 0.20 m
直径 2.80 m
跨度 9.00 m
形状 Box + pan
制造商 SPXS
平台类型 Starlink
阶段状态 In Orbit
所有者/国家 SPXS/US

大型星座

Loading constellations...